CW4517 Weather Reports


time (UTC)temp
C
wind
direction
speed
KPH
gust
KPH
rain 1hr
cm
rain 24hr
cm
rain mn
cm
humidity
%
barometer
mb
20260904101902 23 210 4.8 12.9 0.00 0.00 0.00 88 1009.5
20260904101840 24 225 3.2 9.7 0.00 0.00 0.00 88 1009.7
20260904101113 24 213 3.2 9.7 0.00 0.00 0.00 87 1009.7
20260904100610 24 209 3.2 8.0 0.00 0.00 0.00 87 1009.7
20260904095550 24 234 3.2 6.4 0.00 0.00 0.00 87 1009.7
20260904094826 24 194 1.6 6.4 0.00 0.00 0.00 87 1009.7
20260904094320 24 215 3.2 6.4 0.00 0.00 0.00 87 1009.8
20260904093814 24 217 1.6 4.8 0.00 0.00 0.00 87 1009.8
20260904093309 24 209 1.6 4.8 0.00 0.00 0.00 87 1009.8
20260904092858 24 209 0.0 3.2 0.00 0.00 0.00 86 1010.1
20260904091803 24 217 1.6 4.8 0.00 0.00 0.00 87 1010.1
20260904091304 24 200 1.6 6.4 0.00 0.00 0.00 86 1010.1
20260904091023 24 196 3.2 6.4 0.00 0.00 0.00 86 1010.1
20260904090303 24 201 3.2 6.4 0.00 0.00 0.00 86 1010.1
20260904085801 25 219 3.2 6.4 0.00 0.00 0.00 86 1010.1
20260904085530 25 230 3.2 6.4 0.00 0.00 0.00 86 1010.1
20260904084800 25 227 3.2 6.4 0.00 0.00 0.00 86 1010.1
20260904084259 25 225 1.6 6.4 0.00 0.00 0.00 86 1009.8
20260904084022 25 216 1.6 6.4 0.00 0.00 0.00 86 1009.8
20260904083302 25 223 1.6 6.4 0.00 0.00 0.00 86 1009.8
20260904082758 25 232 1.6 8.0 0.00 0.00 0.00 86 1009.5
20260904082244 25 221 3.2 8.0 0.00 0.00 0.00 86 1009.5
20260904081951 25 219 3.2 9.7 0.00 0.00 0.00 86 1009.5
20260904081221 25 217 4.8 9.7 0.00 0.00 0.00 86 1009.3
20260904081154 25 225 3.2 9.7 0.00 0.00 0.00 86 1009.3
20260904080158 25 234 3.2 9.7 0.00 0.00 0.00 86 1009.3
20260904075644 25 154 3.2 8.0 0.00 0.00 0.00 86 1009.2
20260904075401 25 217 3.2 8.0 0.00 0.00 0.00 86 1009.2
20260904074636 25 210 4.8 8.0 0.00 0.00 0.00 86 1009.2
20260904074131 25 174 4.8 12.9 0.00 0.00 0.00 86 1009.3
20260904073621 25 227 4.8 9.7 0.00 0.00 0.00 86 1009.3
20260904073338 25 231 4.8 9.7 0.00 0.00 0.00 86 1009.3
20260904072612 25 214 4.8 9.7 0.00 0.00 0.00 86 1009.4
20260904072106 25 218 4.8 9.7 0.00 0.00 0.00 86 1009.4
20260904071828 26 220 4.8 9.7 0.00 0.00 0.00 85 1009.4
20260904071055 26 205 3.2 8.0 0.00 0.00 0.00 85 1009.7
20260904070545 26 213 4.8 8.0 0.00 0.00 0.00 85 1009.7
20260904070039 26 238 4.8 9.7 0.00 0.00 0.00 85 1009.7
20260904065528 26 211 4.8 9.7 0.00 0.00 0.00 84 1009.9
20260904065026 26 231 4.8 11.3 0.00 0.00 0.00 84 1009.9
20260904064519 26 234 3.2 11.3 0.00 0.00 0.00 84 1009.9
20260904064014 26 182 4.8 8.0 0.00 0.00 0.00 84 1010.2
20260904063509 26 238 4.8 8.0 0.00 0.00 0.00 84 1010.2
20260904062957 26 168 3.2 11.3 0.00 0.00 0.00 84 1010.2
20260904062457 26 150 3.2 11.3 0.00 0.00 0.00 84 1010.3
20260904062211 26 160 1.6 6.4 0.00 0.00 0.00 84 1010.3
20260904061705 26 177 0.0 6.4 0.00 0.00 0.00 84 1010.3
20260904060937 26 184 1.6 8.0 0.00 0.00 0.00 84 1010.3
20260904060427 26 190 1.6 8.0 0.00 0.00 0.00 84 1010.3
20260904055927 26 198 1.6 4.8 0.00 0.00 0.00 84 1010.5
20260904055420 26 197 1.6 6.4 0.00 0.00 0.00 84 1010.5
20260904054914 26 196 1.6 6.4 0.00 0.00 0.00 84 1010.5
20260904054408 26 202 0.0 0.0 0.00 0.00 0.00 84 1010.3
20260904053901 26 192 0.0 0.0 0.00 0.00 0.00 84 1010.3
20260904053358 26 191 0.0 0.0 0.00 0.00 0.00 84 1010.3
20260904052857 26 190 0.0 6.4 0.00 0.00 0.00 84 1010.2
20260904052354 26 189 1.6 6.4 0.00 0.00 0.00 84 1010.2
20260904051853 26 181 1.6 4.8 0.00 0.00 0.00 84 1010.2
20260904051350 26 198 1.6 4.8 0.00 0.00 0.00 84 1010.3
20260904050849 26 192 1.6 4.8 0.00 0.00 0.00 84 1010.3
20260904050607 26 253 0.0 6.4 0.00 0.00 0.00 85 1010.3
20260904045846 26 146 0.0 6.4 0.00 0.00 0.00 85 1010.3
20260904045345 26 171 0.0 4.8 0.00 0.00 0.00 85 1010.3
20260904044843 26 172 0.0 4.8 0.00 0.00 0.00 85 1010.3
20260904044342 26 195 0.0 0.0 0.00 0.00 0.00 84 1010.4
20260904044101 26 173 0.0 0.0 0.00 0.00 0.00 84 1010.4
20260904043337 26 171 0.0 0.0 0.00 0.00 0.00 84 1010.4
20260904043101 26 148 0.0 0.0 0.00 0.00 0.00 84 1010.4
20260904042554 26 155 0.0 0.0 0.00 0.00 0.00 84 1010.4
20260904042311 26 129 0.0 0.0 0.00 0.00 0.00 84 1010.4
20260904041331 27 128 0.0 0.0 0.00 0.00 0.00 83 1010.4
20260904040832 27 128 0.0 0.0 0.00 0.00 0.00 83 1010.4
20260904040551 27 146 0.0 0.0 0.00 0.00 0.00 83 1010.4
20260904040055 27 142 0.0 0.0 0.00 0.00 0.00 82 1010.5
20260904035828 27 146 0.0 0.0 0.00 0.00 0.00 82 1010.5
20260904034831 27 148 0.0 0.0 0.00 0.00 0.00 82 1010.5
20260904034329 27 175 0.0 0.0 0.00 0.00 0.00 82 1010.5
20260904033832 27 175 0.0 0.0 0.00 0.00 0.00 82 1010.5
20260904033813 27 175 0.0 0.0 0.00 0.00 0.00 81 1010.5
20260904032812 27 175 0.0 0.0 0.00 0.00 0.00 81 1010.7
20260904032313 27 186 0.0 0.0 0.00 0.00 0.00 81 1010.7
20260904031813 27 178 0.0 0.0 0.00 0.00 0.00 81 1010.7
20260904031314 27 176 0.0 0.0 0.00 0.00 0.00 81 1010.7
20260904030812 27 188 0.0 0.0 0.00 0.00 0.00 81 1010.7
20260904030534 27 194 0.0 0.0 0.00 0.00 0.00 81 1010.7
20260904025813 27 153 0.0 0.0 0.00 0.00 0.00 82 1010.8
20260904025315 27 153 0.0 0.0 0.00 0.00 0.00 82 1010.8
20260904024815 27 130 0.0 0.0 0.00 0.00 0.00 82 1010.8
20260904024308 27 130 0.0 0.0 0.00 0.00 0.00 82 1010.4
20260904024248 27 128 0.0 0.0 0.00 0.00 0.00 82 1010.4
20260904023257 28 128 0.0 0.0 0.00 0.00 0.00 82 1010.4
20260904022747 28 128 0.0 0.0 0.00 0.00 0.00 82 1010.3
20260904022722 28 127 0.0 0.0 0.00 0.00 0.00 82 1010.3
20260904021739 28 122 0.0 0.0 0.00 0.00 0.00 82 1010.3
20260904021235 28 122 0.0 0.0 0.00 0.00 0.00 81 1010.2
20260904020729 28 122 0.0 0.0 0.00 0.00 0.00 81 1010.2
20260904020223 28 121 0.0 1.6 0.00 0.00 0.00 81 1010.2
20260904015937 28 118 0.0 1.6 0.00 0.00 0.00 81 1009.8
20260904015211 28 170 0.0 0.0 0.00 0.00 0.00 81 1009.8
20260904014657 28 142 0.0 0.0 0.00 0.00 0.00 80 1009.8
20260904014158 28 135 0.0 4.8 0.00 0.00 0.00 80 1009.5
20260904013648 28 175 1.6 4.8 0.00 0.00 0.00 80 1009.5
20260904013403 28 158 3.2 6.4 0.00 0.00 0.00 80 1009.5
20260904012641 28 149 3.2 6.4 0.00 0.00 0.00 80 1009.4
20260904012125 28 121 3.2 11.3 0.00 0.00 0.00 80 1009.4
20260904011847 28 98 3.2 11.3 0.00 0.00 0.00 80 1009.4
20260904011344 29 117 1.6 6.4 0.00 0.00 0.00 81 1009.2
20260904010616 29 134 1.6 8.0 0.00 0.00 0.00 81 1009.2
20260904010328 29 178 3.2 8.0 0.00 0.00 0.00 80 1009.2
20260904005559 29 121 3.2 6.4 0.00 0.00 0.00 80 1009.2
20260904005058 29 119 3.2 11.3 0.00 0.00 0.00 80 1009.2
20260904005028 29 108 3.2 11.3 0.00 0.00 0.00 80 1009.2
20260904004044 30 94 1.6 8.0 0.00 0.00 0.00 79 1009.2
20260904003540 30 100 1.6 9.7 0.00 0.00 0.00 79 1009.2
20260904003030 30 119 0.0 9.7 0.00 0.00 0.00 78 1009.2
20260904002527 30 115 0.0 1.6 0.00 0.00 0.00 78 1009.2
20260904002021 30 119 0.0 0.0 0.00 0.00 0.00 77 1009.2
20260904001515 30 115 0.0 0.0 0.00 0.00 0.00 77 1009.2
20260904001011 31 126 0.0 0.0 0.00 0.00 0.00 76 1009.2
20260904000502 31 123 0.0 1.6 0.00 0.00 0.00 76 1009.2
20260903235957 31 120 0.0 1.6 0.00 0.00 0.00 75 1009.2
20260903235935 31 110 0.0 0.0 0.00 0.00 0.00 74 1009.2
20260903234951 31 106 0.0 0.0 0.00 0.00 0.00 74 1009.2
20260903234449 31 144 0.0 0.0 0.00 0.00 0.00 73 1009.2
20260903234216 31 149 0.0 0.0 0.00 0.00 0.00 73 1009.2
20260903233704 32 163 0.0 1.6 0.00 0.00 0.00 72 1009.2
20260903232945 32 166 0.0 3.2 0.00 0.00 0.00 72 1009.2
20260903232713 32 103 0.0 3.2 0.00 0.00 0.00 71 1009.2
20260903231943 32 172 0.0 1.6 0.00 0.00 0.00 72 1009.2
20260903231709 32 211 0.0 1.6 0.00 0.00 0.00 71 1009.5
20260903230944 32 189 0.0 1.6 0.00 0.00 0.00 71 1009.5
20260903230447 32 186 0.0 4.8 0.00 0.00 0.00 71 1009.5
20260903225949 32 169 1.6 8.0 0.00 0.00 0.00 71 1009.7
20260903225441 32 167 0.0 8.0 0.00 0.00 0.00 70 1009.7
20260903224929 32 94 0.0 3.2 0.00 0.00 0.00 70 1009.7
20260903224417 32 191 0.0 1.6 0.00 0.00 0.00 70 1009.7
20260903223906 32 173 0.0 8.0 0.00 0.00 0.00 69 1009.7
20260903223353 32 207 0.0 8.0 0.00 0.00 0.00 69 1009.7
20260903222846 32 179 0.0 1.6 0.00 0.00 0.00 69 1009.7
20260903222336 32 182 0.0 3.2 0.00 0.00 0.00 69 1009.7
20260903221834 32 215 0.0 3.2 0.00 0.00 0.00 68 1009.7
20260903221330 32 220 0.0 1.6 0.00 0.00 0.00 67 1009.6
20260903221311 33 275 0.0 1.6 0.00 0.00 0.00 67 1009.6
20260903220317 33 180 1.6 8.0 0.00 0.00 0.00 66 1009.6
20260903215806 33 235 3.2 8.0 0.00 0.00 0.00 65 1009.6
20260903215306 33 167 3.2 9.7 0.00 0.00 0.00 65 1009.6
20260903214753 33 119 3.2 9.7 0.00 0.00 0.00 65 1009.6
20260903214252 33 119 3.2 11.3 0.00 0.00 0.00 65 1009.7
20260903214007 33 201 3.2 11.3 0.00 0.00 0.00 64 1009.7
20260903213241 33 159 1.6 6.4 0.00 0.00 0.00 64 1009.7
20260903212735 33 156 0.0 4.8 0.00 0.00 0.00 64 1009.6
20260903212222 33 187 1.6 9.7 0.00 0.00 0.00 65 1009.6
20260903211722 33 230 3.2 11.3 0.00 0.00 0.00 65 1009.6
20260903211216 33 221 3.2 11.3 0.00 0.00 0.00 64 1009.7
20260903210710 33 109 3.2 8.0 0.00 0.00 0.00 65 1009.7
20260903210204 33 119 3.2 11.3 0.00 0.00 0.00 65 1009.7
20260903205653 33 111 3.2 11.3 0.00 0.00 0.00 64 1009.8
20260903205151 33 125 3.2 8.0 0.00 0.00 0.00 65 1009.8
20260903204647 33 150 3.2 8.0 0.00 0.00 0.00 66 1009.8
20260903204140 33 113 3.2 11.3 0.00 0.00 0.00 65 1010.0
20260903203854 32 110 3.2 11.3 0.00 0.00 0.00 66 1010.0
20260903203128 32 115 4.8 12.9 0.00 0.00 0.00 66 1010.0
20260903202623 32 55 4.8 12.9 0.00 0.00 0.00 66 1010.1
20260903202112 32 126 4.8 12.9 0.00 0.00 0.00 66 1010.1
20260903201611 32 111 3.2 12.9 0.00 0.00 0.00 65 1010.1
20260903201105 32 121 1.6 11.3 0.00 0.00 0.00 65 1010.1
20260903200830 32 76 3.2 12.9 0.00 0.00 0.00 65 1010.1
20260903200051 32 71 6.4 14.5 0.00 0.00 0.00 65 1010.1
20260903195804 33 96 4.8 14.5 0.00 0.00 0.00 64 1010.2
20260903195039 33 71 1.6 14.5 0.00 0.00 0.00 64 1010.2
20260903194533 33 140 1.6 4.8 0.00 0.00 0.00 64 1010.2
20260903194253 33 146 0.0 4.8 0.00 0.00 0.00 64 1010.4
20260903193746 33 15 0.0 4.8 0.00 0.00 0.00 63 1010.4
20260903193024 33 64 1.6 6.4 0.00 0.00 0.00 65 1010.4
20260903192525 32 131 3.2 8.0 0.00 0.00 0.00 65 1010.8
20260903192022 32 104 3.2 11.3 0.00 0.00 0.00 65 1010.8
20260903191522 32 14 4.8 12.9 0.00 0.00 0.00 66 1010.8
20260903191020 32 60 4.8 12.9 0.00 0.00 0.00 65 1010.9
20260903190520 32 81 3.2 12.9 0.00 0.00 0.00 65 1010.9
20260903190244 32 41 4.8 12.9 0.00 0.00 0.00 65 1010.9
20260903185958 32 17 4.8 11.3 0.00 0.00 0.00 66 1010.9
20260903185023 32 119 6.4 14.5 0.00 0.00 0.00 67 1010.9
20260903184744 32 289 6.4 14.5 0.00 0.00 0.00 67 1010.9
20260903184018 32 44 4.8 14.5 0.00 0.00 0.00 67 1011.0
20260903183506 31 71 4.8 14.5 0.00 0.00 0.00 67 1011.0
20260903182954 31 341 4.8 14.5 0.00 0.00 0.00 66 1011.3
20260903182443 31 28 6.4 12.9 0.00 0.00 0.00 68 1011.3
20260903181931 31 0 6.4 12.9 0.00 0.00 0.00 66 1011.3
20260903181644 31 70 8.0 17.7 0.00 0.00 0.00 67 1011.3
20260903180920 31 27 9.7 17.7 0.00 0.00 0.00 68 1011.3
20260903180415 31 355 9.7 19.3 0.00 0.00 0.00 68 1011.3
20260903175908 31 348 9.7 19.3 0.00 0.00 0.00 68 1011.3
20260903175404 31 33 9.7 19.3 0.00 0.00 0.00 68 1011.3
20260903174856 32 36 9.7 19.3 0.00 0.00 0.00 67 1011.3
20260903174612 32 355 8.0 16.1 0.00 0.00 0.00 67 1011.3
20260903173839 32 336 4.8 14.5 0.00 0.00 0.00 66 1011.3
20260903173337 32 311 4.8 12.9 0.00 0.00 0.00 65 1011.3
20260903172831 32 221 6.4 12.9 0.00 0.00 0.00 66 1011.4
20260903172325 32 252 6.4 14.5 0.00 0.00 0.00 65 1011.4
20260903171819 32 130 6.4 14.5 0.00 0.00 0.00 66 1011.4
20260903171531 32 9 8.0 19.3 0.00 0.00 0.00 66 1011.3
20260903170807 32 41 6.4 19.3 0.00 0.00 0.00 65 1011.3
20260903170303 32 344 4.8 12.9 0.00 0.00 0.00 67 1011.3
20260903165755 32 5 6.4 14.5 0.00 0.00 0.00 67 1010.9
20260903164738 31 283 8.0 16.1 0.00 0.00 0.00 67 1010.9
20260903164237 31 188 8.0 16.1 0.00 0.00 0.00 69 1010.8
20260903164205 31 235 8.0 14.5 0.00 0.00 0.00 68 1010.8
20260903163224 31 201 6.4 14.5 0.00 0.00 0.00 68 1010.8
20260903162720 31 205 4.8 11.3 0.00 0.00 0.00 69 1010.9
20260903162215 31 242 6.4 14.5 0.00 0.00 0.00 69 1010.9
20260903161709 31 213 6.4 14.5 0.00 0.00 0.00 70 1010.9
20260903161156 31 190 6.4 17.7 0.00 0.00 0.00 70 1010.8
20260903160656 31 226 6.4 17.7 0.00 0.00 0.00 69 1010.8
20260903160146 31 221 4.8 12.9 0.00 0.00 0.00 70 1010.8
20260903155643 30 227 6.4 14.5 0.00 0.00 0.00 71 1010.8
20260903155353 30 236 6.4 14.5 0.00 0.00 0.00 70 1010.8
20260903154627 30 222 6.4 16.1 0.00 0.00 0.00 70 1010.8
20260903154353 30 236 6.4 16.1 0.00 0.00 0.00 71 1010.9
20260903153618 30 198 6.4 14.5 0.00 0.00 0.00 72 1010.9
20260903153558 30 244 6.4 14.5 0.00 0.00 0.00 73 1010.9
20260903152837 30 213 6.4 16.1 0.00 0.00 0.00 73 1010.9
20260903152324 29 242 8.0 16.1 0.00 0.00 0.00 73 1010.9
20260903151555 29 254 8.0 17.7 0.00 0.00 0.00 73 1010.9
20260903151045 29 257 8.0 17.7 0.00 0.00 0.00 73 1010.9
20260903150543 29 230 8.0 16.1 0.00 0.00 0.00 74 1010.9
20260903150036 29 238 6.4 16.1 0.00 0.00 0.00 75 1010.9
20260903145530 28 173 4.8 11.3 0.00 0.00 0.00 75 1010.9
20260903145249 28 232 6.4 12.9 0.00 0.00 0.00 75 1010.9
20260903144516 28 248 6.4 12.9 0.00 0.00 0.00 76 1010.9
20260903144006 28 231 6.4 14.5 0.00 0.00 0.00 75 1010.9
20260903143454 28 290 6.4 14.5 0.00 0.00 0.00 75 1010.9
20260903142942 28 258 8.0 12.9 0.00 0.00 0.00 76 1010.8
20260903142508 28 198 8.0 14.5 0.00 0.00 0.00 76 1010.8
20260903141847 27 227 8.0 14.5 0.00 0.00 0.00 77 1010.8
20260903141117 27 212 8.0 14.5 0.00 0.00 0.00 78 1010.8
20260903140341 27 221 6.4 14.5 0.00 0.00 0.00 78 1010.8
20260903135828 27 232 6.4 12.9 0.00 0.00 0.00 80 1010.8
20260903135316 27 240 6.4 12.9 0.00 0.00 0.00 80 1010.8
20260903134811 26 195 4.8 12.9 0.00 0.00 0.00 81 1010.8
20260903134306 26 207 6.4 16.1 0.00 0.00 0.00 81 1010.8
20260903133755 26 225 8.0 16.1 0.00 0.00 0.00 82 1010.8
20260903133252 26 246 6.4 16.1 0.00 0.00 0.00 82 1010.8
20260903132746 26 196 6.4 16.1 0.00 0.00 0.00 83 1010.9
20260903132459 25 181 6.4 14.5 0.00 0.00 0.00 83 1010.9
20260903131956 25 244 4.8 14.5 0.00 0.00 0.00 84 1010.9
20260903131452 25 229 4.8 14.5 0.00 0.00 0.00 84 1011.0
20260903130948 25 169 4.8 11.3 0.00 0.00 0.00 84 1011.0
20260903130211 25 225 4.8 11.3 0.00 0.00 0.00 85 1011.0
20260903125710 25 213 4.8 11.3 0.00 0.00 0.00 85 1011.1
20260903125206 25 214 4.8 8.0 0.00 0.00 0.00 85 1011.1
20260903124658 24 177 4.8 8.0 0.00 0.00 0.00 86 1011.1
20260903124151 24 196 3.2 8.0 0.00 0.00 0.00 86 1011.1
20260903123641 24 215 3.2 8.0 0.00 0.00 0.00 86 1011.1
20260903123140 24 207 1.6 6.4 0.00 0.00 0.00 87 1011.1
20260903122635 23 148 1.6 6.4 0.00 0.00 0.00 87 1011.1
20260903122128 23 200 1.6 6.4 0.00 0.00 0.00 87 1011.1
20260903121623 23 219 1.6 8.0 0.00 0.00 0.00 87 1011.1
20260903121113 23 217 1.6 8.0 0.00 0.00 0.00 87 1011.0
20260903120833 23 178 1.6 4.8 0.00 0.00 0.00 87 1011.0
20260903120104 23 191 1.6 4.8 0.00 0.00 0.00 87 1011.0
20260903115640 23 211 1.6 4.8 0.00 0.00 0.00 87 1011.0
20260903114805 23 178 1.6 6.4 0.00 0.00 0.00 87 1011.0
20260903114040 23 191 1.6 6.4 0.00 0.00 0.00 87 1010.9
20260903113535 23 207 1.6 6.4 0.00 0.00 0.00 87 1010.9
20260903113029 23 224 1.6 6.4 0.00 0.00 0.00 87 1010.9
20260903112523 23 180 1.6 6.4 0.00 0.00 0.00 87 1010.9
20260903112015 23 237 0.0 6.4 0.00 0.00 0.00 87 1010.9
20260903111511 23 213 1.6 4.8 0.00 0.00 0.00 87 1010.9
20260903111000 23 219 1.6 4.8 0.00 0.00 0.00 87 1010.9
20260903110458 23 236 1.6 6.4 0.00 0.00 0.00 87 1010.9
20260903105952 23 229 1.6 6.4 0.00 0.00 0.00 86 1010.8
20260903105445 23 221 3.2 6.4 0.00 0.00 0.00 86 1010.8
20260903104940 23 223 3.2 8.0 0.00 0.00 0.00 86 1010.8
20260903104432 23 223 1.6 8.0 0.00 0.00 0.00 86 1010.8
20260903104141 23 234 3.2 8.0 0.00 0.00 0.00 86 1010.8
20260903103407 23 244 3.2 9.7 0.00 0.00 0.00 86 1010.8
20260903103118 23 225 3.2 9.7 0.00 0.00 0.00 86 1010.8
20260903102358 23 194 3.2 6.4 0.00 0.00 0.00 86 1010.8